timestamp,surface_pressure_avg,surface_temp_avg,battery_voltage,lat,long
2024-04-08 00:09:00+00:00,367.8246,1.3,11.93,47.84626,-54.09684
2024-04-08 00:19:00+00:00,362.3346,1.3,11.93,47.84626,-54.09684
2024-04-08 00:29:00+00:00,359.2529,1.3,11.93,47.84626,-54.09684
2024-04-08 00:39:00+00:00,356.0096,1.33,11.93,47.84626,-54.09684
2024-04-08 00:49:00+00:00,351.478,1.37,11.93,47.84626,-54.09684
2024-04-08 00:59:00+00:00,345.8329,1.39,11.93,47.84626,-54.09684
2024-04-08 01:09:00+00:00,336.3264,1.39,11.93,47.84626,-54.09684
2024-04-08 01:19:01+00:00,325.0664,1.4,11.93,47.84626,-54.09684
2024-04-08 01:29:01+00:00,314.3414,1.4,11.93,47.84626,-54.09684
2024-04-08 01:39:01+00:00,304.213,1.4,11.93,47.84626,-54.09684
2024-04-08 01:49:01+00:00,290.0614,1.45,11.93,47.84626,-54.09684
2024-04-08 01:59:01+00:00,277.6747,1.47,11.93,47.84626,-54.09684
2024-04-08 02:09:01+00:00,268.6064,1.57,11.93,47.84626,-54.09684
2024-04-08 02:19:01+00:00,256.7164,1.6,11.93,47.84626,-54.09684
2024-04-08 02:29:01+00:00,244.9698,1.53,11.93,47.84626,-54.09684
2024-04-08 02:39:01+00:00,236.9914,1.59,11.93,47.84626,-54.09684
2024-04-08 02:49:01+00:00,226.1531,1.59,11.93,47.84626,-54.09684
2024-04-08 02:59:01+00:00,214.6831,1.6,11.93,47.84626,-54.09684
2024-04-08 03:09:01+00:00,210.8881,1.6,11.93,47.84626,-54.09684
2024-04-08 03:19:00+00:00,208.7898,1.59,11.93,47.84626,-54.09684
2024-04-08 03:29:00+00:00,202.0898,1.58,11.93,47.84626,-54.09684
2024-04-08 03:39:00+00:00,196.5231,1.56,11.93,47.84626,-54.09684
2024-04-08 03:49:00+00:00,194.0598,1.55,11.93,47.84626,-54.09684
2024-04-08 03:59:00+00:00,187.5098,1.66,11.93,47.84626,-54.09684
2024-04-08 04:09:00+00:00,183.5231,1.6,11.93,47.84626,-54.09684
2024-04-08 04:19:00+00:00,183.3364,1.6,11.93,47.84626,-54.09684
2024-04-08 04:29:00+00:00,180.1281,1.6,11.93,47.84626,-54.09684
2024-04-08 04:39:00+00:00,175.6982,1.58,11.93,47.84626,-54.09684
2024-04-08 04:49:00+00:00,173.9814,1.51,11.93,47.84626,-54.09684
2024-04-08 04:59:00+00:00,174.5081,1.53,11.93,47.84626,-54.09684
2024-04-08 05:09:00+00:00,174.2398,1.6,11.93,47.84626,-54.09684
2024-04-08 05:19:00+00:00,173.0598,1.6,11.93,47.84626,-54.09684
2024-04-08 05:29:00+00:00,174.8248,1.6,11.93,47.84626,-54.09684
2024-04-08 05:39:00+00:00,178.1615,1.6,11.93,47.84626,-54.09684
2024-04-08 05:49:00+00:00,178.8598,1.58,11.93,47.84626,-54.09684
2024-04-08 05:59:00+00:00,181.3965,1.54,11.93,47.84626,-54.09684
2024-04-08 06:09:00+00:00,185.7381,1.55,11.93,47.84626,-54.09684
2024-04-08 06:19:00+00:00,187.5764,1.55,11.93,47.84626,-54.09684
2024-04-08 06:29:00+00:00,193.2481,1.5,11.93,47.84626,-54.09684
2024-04-08 06:39:00+00:00,202.0364,1.5,11.93,47.84626,-54.09684
2024-04-08 06:49:00+00:00,206.5348,1.5,11.93,47.84626,-54.09684
2024-04-08 06:59:00+00:00,210.8614,1.5,11.93,47.84626,-54.09684
2024-04-08 07:09:00+00:00,219.3898,1.3,11.93,47.84626,-54.09684
2024-04-08 07:19:01+00:00,225.7747,1.4,11.93,47.84626,-54.09684
2024-04-08 07:29:01+00:00,229.5981,1.24,11.93,47.84626,-54.09684
2024-04-08 07:39:01+00:00,236.0815,1.2,11.93,47.84626,-54.09684
2024-04-08 07:49:01+00:00,243.7914,1.29,11.93,47.84626,-54.09684
2024-04-08 07:59:01+00:00,248.9497,1.32,11.93,47.84626,-54.09684
2024-04-08 08:09:01+00:00,252.9381,1.22,11.93,47.84626,-54.09684
2024-04-08 08:19:00+00:00,261.6147,1.18,11.93,47.84626,-54.09684
2024-04-08 08:29:00+00:00,269.8481,1.23,11.93,47.84626,-54.09684
2024-04-08 08:39:00+00:00,277.3581,1.3,11.93,47.84626,-54.09684
2024-04-08 08:49:00+00:00,285.7397,1.1,11.93,47.84626,-54.09684
2024-04-08 08:59:00+00:00,295.493,1.11,11.93,47.84626,-54.09684
2024-04-08 09:09:00+00:00,303.3646,1.1,11.93,47.84626,-54.09684
2024-04-08 09:19:00+00:00,310.5697,1.0,11.93,47.84626,-54.09684
2024-04-08 09:29:00+00:00,321.433,0.9,11.93,47.84626,-54.09684
2024-04-08 09:39:00+00:00,331.4763,0.9,11.93,47.84626,-54.09684
2024-04-08 09:49:00+00:00,339.4313,0.96,11.93,47.84626,-54.09684
2024-04-08 09:59:00+00:00,349.028,1.0,11.93,47.84626,-54.09684
2024-04-08 10:09:00+00:00,360.4413,1.0,11.93,47.84626,-54.09684
2024-04-08 10:19:00+00:00,366.6879,1.0,11.93,47.84626,-54.09684
2024-04-08 10:29:00+00:00,369.1763,0.99,11.93,47.84626,-54.09684
2024-04-08 10:39:00+00:00,374.0746,0.9,11.93,47.84626,-54.09684
2024-04-08 10:49:00+00:00,378.2979,0.9,11.93,47.84626,-54.09684
2024-04-08 10:59:00+00:00,378.8529,0.9,11.93,47.84626,-54.09684
2024-04-08 11:09:00+00:00,379.1763,0.9,11.93,47.84626,-54.09684
2024-04-08 11:19:00+00:00,380.8963,0.9,12.01,47.84626,-54.09684
2024-04-08 11:29:00+00:00,380.9095,0.9,12.01,47.84626,-54.09684
2024-04-08 11:39:00+00:00,378.8946,0.9,12.01,47.84626,-54.09684
2024-04-08 11:49:00+00:00,378.1313,0.9,12.01,47.84626,-54.09684
2024-04-08 11:59:00+00:00,377.0513,0.9,12.01,47.84626,-54.09684
2024-04-08 12:09:00+00:00,372.3662,0.9,12.01,47.84626,-54.09684
2024-04-08 12:19:00+00:00,371.1963,0.9,12.01,47.84626,-54.09684
2024-04-08 12:29:00+00:00,368.88800000000003,0.9,12.01,47.84626,-54.09684
2024-04-08 12:39:00+00:00,363.413,0.9,12.01,47.84626,-54.09684
2024-04-08 12:49:00+00:00,360.6446,0.9,12.01,47.84626,-54.09684
2024-04-08 12:59:00+00:00,357.8445,0.9,12.01,47.84626,-54.09684
2024-04-08 13:09:00+00:00,350.3596,0.9,12.01,47.84626,-54.09684
2024-04-08 13:19:00+00:00,342.4045,0.9,12.17,47.84626,-54.09684
2024-04-08 13:29:00+00:00,339.5314,0.9,12.17,47.84626,-54.09684
2024-04-08 13:39:00+00:00,332.6263,0.9,12.17,47.84626,-54.09684
2024-04-08 13:49:00+00:00,317.9363,0.9,12.17,47.84626,-54.09684
2024-04-08 13:59:00+00:00,305.598,0.9,12.17,47.84626,-54.09684
2024-04-08 14:09:00+00:00,297.9348,0.9,12.17,47.84626,-54.09684
2024-04-08 14:19:01+00:00,287.678,0.93,12.09,47.84626,-54.09684
2024-04-08 14:29:01+00:00,271.3831,1.0,12.09,47.84626,-54.09684
2024-04-08 14:39:01+00:00,260.6847,1.05,12.09,47.84626,-54.09684
2024-04-08 14:49:01+00:00,255.2348,0.89,12.09,47.84626,-54.09684
2024-04-08 14:59:01+00:00,244.1397,0.9,12.09,47.84626,-54.09684
2024-04-08 15:09:01+00:00,229.5531,0.9,12.09,47.84626,-54.09684
2024-04-08 15:19:00+00:00,223.5348,0.91,12.25,47.84626,-54.09684
2024-04-08 15:29:00+00:00,219.3731,1.0,12.25,47.84626,-54.09684
2024-04-08 15:39:00+00:00,208.9264,1.1,12.25,47.84626,-54.09684
2024-04-08 15:49:00+00:00,200.9648,1.11,12.25,47.84626,-54.09684
2024-04-08 15:59:00+00:00,200.6831,1.2,12.25,47.84626,-54.09684
2024-04-08 16:09:00+00:00,194.6681,1.25,12.25,47.84626,-54.09684
2024-04-08 16:19:00+00:00,184.8231,1.3,12.41,47.84626,-54.09684
2024-04-08 16:29:00+00:00,185.0231,1.1,12.41,47.84626,-54.09684
2024-04-08 16:39:00+00:00,185.9531,1.12,12.41,47.84626,-54.09684
2024-04-08 16:49:00+00:00,178.3431,1.2,12.41,47.84626,-54.09684
2024-04-08 16:59:00+00:00,174.7647,1.09,12.41,47.84626,-54.09684
2024-04-08 17:09:00+00:00,179.0799,1.1,12.41,47.84626,-54.09684
2024-04-08 17:19:00+00:00,176.6581,1.2,12.17,47.84626,-54.09684
2024-04-08 17:29:00+00:00,172.2498,1.17,12.17,47.84626,-54.09684
2024-04-08 17:39:00+00:00,177.8782,1.18,12.17,47.84626,-54.09684
2024-04-08 17:49:00+00:00,179.4598,1.11,12.17,47.84626,-54.09684
2024-04-08 17:59:00+00:00,174.7215,1.3,12.17,47.84626,-54.09684
2024-04-08 18:09:00+00:00,179.6848,1.35,12.17,47.84626,-54.09684
2024-04-08 18:19:00+00:00,191.9798,1.39,12.25,47.84626,-54.09684
2024-04-08 18:29:00+00:00,195.5732,1.4,12.25,47.84626,-54.09684
2024-04-08 18:39:00+00:00,198.7514,1.4,12.25,47.84626,-54.09684
2024-04-08 18:49:00+00:00,208.5015,1.36,12.25,47.84626,-54.09684
2024-04-08 18:59:00+00:00,213.4431,1.3,12.25,47.84626,-54.09684
2024-04-08 19:09:00+00:00,215.9648,1.3,12.25,47.84626,-54.09684
2024-04-08 19:19:00+00:00,223.3014,1.3,12.17,47.84626,-54.09684
2024-04-08 19:29:00+00:00,228.3148,1.2,12.17,47.84626,-54.09684
2024-04-08 19:39:00+00:00,228.2964,1.19,12.17,47.84626,-54.09684
2024-04-08 19:49:00+00:00,236.0498,1.2,12.17,47.84626,-54.09684
2024-04-08 19:59:00+00:00,248.8498,1.2,12.17,47.84626,-54.09684
2024-04-08 20:09:00+00:00,254.9747,1.13,12.17,47.84626,-54.09684
2024-04-08 20:19:00+00:00,257.8364,1.23,12.01,47.84626,-54.09684
2024-04-08 20:29:00+00:00,268.1464,1.2,12.01,47.84626,-54.09684
2024-04-08 20:39:00+00:00,277.9514,1.2,12.01,47.84626,-54.09684
2024-04-08 20:49:00+00:00,281.7847,1.1,12.01,47.84626,-54.09684
2024-04-08 20:59:00+00:00,287.4348,1.1,12.01,47.84626,-54.09684
2024-04-08 21:09:00+00:00,301.9963,0.9,12.01,47.84626,-54.09684
2024-04-08 21:19:00+00:00,311.678,0.85,12.01,47.84626,-54.09684
2024-04-08 21:29:00+00:00,315.7213,1.03,12.01,47.84626,-54.09684
2024-04-08 21:39:00+00:00,325.298,0.91,12.01,47.84626,-54.09684
2024-04-08 21:49:00+00:00,339.4562,0.96,12.01,47.84626,-54.09684
2024-04-08 21:59:00+00:00,347.9128,0.99,12.01,47.84626,-54.09684
2024-04-08 22:09:00+00:00,353.7579,1.02,12.01,47.84626,-54.09684
2024-04-08 22:19:00+00:00,367.1078,1.0,11.93,47.84626,-54.09684
2024-04-08 22:29:00+00:00,377.4012,0.9,11.93,47.84626,-54.09684
2024-04-08 22:39:00+00:00,380.8497,0.9,11.93,47.84626,-54.09684
2024-04-08 22:49:00+00:00,384.8663,0.8,11.93,47.84626,-54.09684
2024-04-08 22:59:00+00:00,391.73800000000006,0.8,11.93,47.84626,-54.09684
2024-04-08 23:09:00+00:00,394.7178,0.8,11.93,47.84626,-54.09684
2024-04-08 23:19:00+00:00,394.0179,0.88,11.93,47.84626,-54.09684
2024-04-08 23:29:00+00:00,396.2296,0.8,11.93,47.84626,-54.09684
2024-04-08 23:39:00+00:00,401.4496,0.7,11.93,47.84626,-54.09684
2024-04-08 23:49:00+00:00,401.9178,0.7,11.93,47.84626,-54.09684
2024-04-08 23:59:00+00:00,400.2162,0.68,11.93,47.84626,-54.09684
